Terminal Aerodrome Forecast
Issued by NWS Raleigh/Durham, NC

Home | Current Version | Previous Version | Text Only | Print | Product List | Glossary On
Versions: 1 2 3 4 5 6 7 8 9 10 11 12 13 14 15 16 17 18 19 20 21 22 23 24 25 26 27 28 29 30 31 32 33 34 35 36 37 38 39 40 41 42 43 44 45 46 47 48 49 50
000
FTUS42 KRAH 201432 AAB
TAFRDU
TAF AMD
KRDU 201432Z 2015/2112 VRB03KT P6SM SCT015 BKN050 BKN150
     FM201900 VRB05KT P6SM VCSH SCT050 BKN150
     FM210300 VRB05KT P6SM SCT250
     FM210900 00000KT 4SM BR BKN250=

USA.gov is the U.S. government's official web portal to all federal, state and local government web resources and services.